Погода в Астаре

Погода в Астаре : погода сейчас, прогноз погоды и архив. Всё, что Вы хотите узнать о погоде в Астаре!

Поиск расширенной информации на нашем сайте:

Другие новости

Новости СМИ2

Главная страница сайта

Новости сайта

03.07.2017

Напоминаем, что на нашем специализированном сайте Метеоцентр.Азия вы можете получить высокодетализированные автоматические прогнозы погоды по пунктам России, СНГ и мира в авиационном формате (включающие направление и скорость ветра, видимость, явления погоды, количество и форму облачности, нижнюю и верхнюю границу облачности).

Рекомендуем: Заправка картриджей Молодежная для Samsung.

Погода в Астаре - сегодня

Время (UTC), дата Ветер
(°,м/с) 
Видим.   Явления Облачность Т
(°С)
Тd
(°С)
f(%) Тe
(°С)
Pmin
(гПа)
dP
(гПа)
Po
(мм)
O2
(г/м3)
Тmin Tmax R s Состояние
почвы
09 18.10.17 060 (СВ) 20000 м    1/1 600 м 
[Cu hum]
+20.7 +13.8 65 +27  1024.8  0.5  771  286           
12 18.10.17 060 (СВ) 20000 м    4/4 600 м средняя 
[Cu hum|Ac trans]
+19.9 +14.6 72 +28  1024.7  -0.1  770  286           
15 18.10.17 290 (З) 4000 м    8/8 600 м кучево-дожд. 
[Cb cap]
+17.2 +15 87 +27  1025.3  0.7  771  289           
18 18.10.17 290 (З) 4000 м    3/0 средняя 
[Ac trans]
+15 +13.7 92 +22  1026.2  0.8  772  292    +21.4       
21 18.10.17 280 (З) 4000 м    1/1 600 м 
[Cu hum]
+14.8 +11.6 81 +19  1025.4  -0.7  771  293           
00 19.10.17 280 (З) 4000 м    ясно 
+13.4 +9.6 78 +14  1024.7  -0.7  771  294           
03 19.10.17 310 (СЗ) 20000 м    1/1 600 м 
[Cu hum]
+12.6 +8.9 78 +13  1024.9  0.2  771  295           
06 19.10.17 360 (С) 20000 м    1/0 средняя 
[Ac trans]
+18.1 +11.6 66 +22  1025.6  0.6  771  289  +12.6         
09 19.10.17 050 (СВ) 20000 м    8/8 600 м 
[Sc]
+18.8 +14.3 75 +27  1024.1  -1.5  770  287           
12 19.10.17 040 (СВ) 20000 м    8/8 600 м средняя 
[Cu hum|Ac trans]
+19.2 +14 72 +27  1022.1  -2  769  287           
15 19.10.17 300 (СЗ) 4000 м    3/3 600 м 
[Cu hum]
+16.4 +14.3 87 +25  1021.4  -0.7  768  289           
18 19.10.17 280 (З) 4000 м    4/0 средняя 
[Ac trans]
+14.5 +13 91 +21  1021.2  -0.2  768  291    +19.7       
21 19.10.17 300 (СЗ) 4000 м    6/0 средняя 
[Ac trans]
+14.5 +11.5 82 +18  1020.1  -1.1  767  291           
00 20.10.17 310 (СЗ) 4000 м    1/1 600 м 
[Cu hum]
+13.8 +10.3 79 +15  1019.1  -1  766  292           
03 20.10.17 280 (З) 20000 м    3/3 600 м 
[Cu hum]
+12 +10.3 89 +13  1019.6  0.6  767  294           
06 20.10.17 320 (СЗ) 20000 м    ясно 
+18.9 +12.3 65 +24  1020.2  0.5  767  287  +11.8         
09 20.10.17 050 (СВ) 20000 м    4/4 600 м средняя 
[Cu hum|Ac trans]
+19.9 +14.1 69 +28  1019.1  -1.1  766  285           
12 20.10.17 060 (СВ) 20000 м    3/3 600 м 
[Cu hum]
+20 +16.4 80 +31  1018.5  -0.6  766  284           
15 20.10.17 260 (З) 4000 м    ясно 
+17.6 +14.1 80 +26  1018.9  0.4  766  287           
21 20.10.17 300 (СЗ) 4000 м    ясно 
+13.2 +11.5 89 +17  1018.8  -0.4  766  292           
00 21.10.17 280 (З) 4000 м    8/8 600 м 
[Cu hum]
+13.1 +10.6 85 +16  1018.7  -0.1  766  293           
03 21.10.17 290 (З) 20000 м    ясно 
+12.8 +9 78 +13  1018.8  0.2  766  293           
06 21.10.17 310 (СЗ) 20000 м    ясно 
+18.1 +10.7 62 +22  1019.1  0.2  766  288  +12.6         
09 21.10.17 050 (СВ) 20000 м    1/1 600 м 
[Cu hum]
+20.4 +15.4 73 +29  1017.8  -1.3  765  284           
12 21.10.17 130 (ЮВ) 20000 м    4/4 600 м 
[Cu hum]
+19.9 +15.5 76 +30  1016.2  -1.6  764  284           
Время (UTC), дата Ветер
(°,м/с) 
Видим.   Явления Облачность Т
(°С)
Тd
(°С)
f(%) Тe
(°С)
Pmin
(гПа)
dP
(гПа)
Po
(мм)
O2
(г/м3)
Тmin Tmax R s Состояние
почвы

Для получения пояснительной информации подведите курсор к названию столбца.

ПОГОДА в Астаре - архив

Всё, что Вы хотите узнать о погоде в Астаре - удобно и подробно!

Выберите нужную дату (начиная с 1 января 2015* года) и нажмите кнопку "Найти".
Будут отображены архивные сводки погоды по пункту Астара, начиная с указанной даты.


Отображать данные в формате CSV (для использования в таблицах Excel)


Внимание! Наш архив погоды предназначен исключительно для личного некоммерческого использования в познавательных целях. Если Вам необходимы официальные справки о состоянии погоды (для производственных, юридических, коммерческих и т.п. целей), обращайтесь в органы Росгидромета.

*Примечание: данная дата относится к архиву по метеостанциям СССР (Россия, СНГ, Балтия).
Архив по метеостанциям Зарубежной Европы и Азии (кроме Китая) хранится 10 дней, по другим регионам земного шара (Китай, Африка, Америка, Австралия, Океания) - 1 день.

Астара - район местоположения метеостанции


Название, широта, долгота, высота метеостанции:
Астара 38.4°ш. 48.9°д. -22 м над ур. моря [Азербайджан]

Дополнительная информация

В oтличие oт бoльшинства пoгoдных сайтoв мы публикуем пoдрoбную метеoинфoрмацию в детальнoм прoфессиoнальнoм фoрмате.

Характеристики температуры и влажнoсти вoздуха измеряются на высoте 2 м в тени вдали oт зданий и деревьев.
Скoрoсть ветра измеряется на высoте 10 м (на урoвне рoста челoвека скoрoсть ветра ниже в 1.5-2 раза). Если метеoстанция нахoдится в гoрoде или в лесу, тo скoрoсть ветра занижена на 2-4 м/с пo сравнению с oткрытым местoм. Скoрoсть ветра над акватoриями крупных рек и oзёр, а также на вершинах хoлмoв на 2-5 м/с выше, чем в oбычных услoвиях.
Атмoсфернoе давление в разных тoчках местнoсти мoжет значительнo oтличаться oт давления на метеoстанции, в зависимoсти oт услoвий рельефа (при пoдъёме на 10 м давление пoнижается примернo на 1 мм рт.ст.).